Weather History for Sedalia, MO

Change the Weather History Date:

Thursday, February 14, 2013

  Actual Average Record
Temperature  
Mean Temperature 44 °F 36 °F  
Max Temperature 51 °F 45 °F 75 °F (1954)
Min Temperature 36 °F 27 °F 0 °F (1988)
Degree Days  
Heating Degree Days 21 29  
Month to date heating degree days 360 429  
Since 1 July heating degree days 2960 3244  
Cooling Degree Days 0 0  
Month to date cooling degree days 0 0  
Year to date cooling degree days 1 0  
Moisture  
Dew Point 29 °F    
Average Humidity 59    
Maximum Humidity 76    
Minimum Humidity 42    
Precipitation  
Precipitation T in 0.06 in 0.83 in (2003)
Month to date precipitation 0.45 1.01  
Year to date precipitation 3.15 2.68  
Sea Level Pressure  
Sea Level Pressure 30.00 in    
Wind  
Wind Speed 10 mph (WNW)    
Max Wind Speed 17 mph    
Max Gust Speed 29 mph    
Visibility 10 miles    
Events      
T = Trace of Precipitation, MM = Missing Value Source: NWS Daily Summary

Daily Weather History Graph

Daily Weather History Graph

Search for Another Location

Airport:

Trip Planner

Search our weather history database for the weather conditions in past years. The results will help you decide how hot, cold, wet, or windy it might be!

Date:

Astronomy

Feb. 14, 2013 Rise Set
Actual Time 7:04 AM CST 5:49 PM CST
Civil Twilight 6:37 AM CST 6:16 PM CST
Nautical Twilight 6:06 AM CST 6:48 PM CST
Astronomical Twilight 5:35 AM CST 7:19 PM CST
Moon 9:10 AM CST (2/14) 10:49 PM CST (2/14)
Length of Visible Light 11h 39m
Length of Day
10h 45m
Waxing Crescent, 22% of the Moon is Illuminated
Feb 14
Waxing Crescent
Feb 17
First Quarter
Feb 25
Full
Mar 4
Last Quarter
Mar 11
New

Hourly Weather History & Observations

Time (CST) Temp. Windchill Dew Point Humidity Pressure Visibility Wind Dir Wind Speed Gust Speed Precip Events Conditions
12:53 AM 39.9 °F 32.1 °F 30.9 °F 70% 29.85 in 10.0 mi SW 13.8 mph - N/A   Clear
1:53 AM 39.0 °F 31.4 °F 30.0 °F 70% 29.86 in 10.0 mi WSW 12.7 mph 20.7 mph N/A   Clear
2:53 AM 37.9 °F 30.9 °F 30.0 °F 73% 29.86 in 10.0 mi WSW 10.4 mph - N/A   Clear
4:53 AM 37.0 °F 31.0 °F 28.9 °F 73% 29.88 in 10.0 mi WSW 8.1 mph - N/A   Clear
5:53 AM 37.9 °F 30.9 °F 28.9 °F 70% 29.91 in 10.0 mi West 10.4 mph - N/A   Overcast
6:53 AM 39.0 °F 34.0 °F 28.9 °F 67% 29.92 in 10.0 mi WSW 6.9 mph - N/A   Overcast
7:53 AM 39.9 °F 32.9 °F 28.9 °F 65% 29.96 in 10.0 mi West 11.5 mph - N/A   Overcast
8:53 AM 43.0 °F 37.2 °F 30.9 °F 62% 29.98 in 10.0 mi WNW 10.4 mph - N/A   Clear
9:53 AM 46.0 °F 39.6 °F 32.0 °F 58% 30.00 in 10.0 mi NW 15.0 mph - N/A   Clear
10:53 AM 48.0 °F - 33.1 °F 56% 30.01 in 10.0 mi NW 13.8 mph - N/A   Clear
11:53 AM 48.9 °F - 32.0 °F 52% 30.01 in 10.0 mi WNW 10.4 mph - N/A   Clear
12:53 PM 50.0 °F - 32.0 °F 50% 30.00 in 10.0 mi NW 12.7 mph - N/A   Clear
1:53 PM 51.1 °F - 32.0 °F 48% 30.01 in 10.0 mi WNW 13.8 mph 20.7 mph N/A   Clear
2:53 PM 51.1 °F - 32.0 °F 48% 30.01 in 10.0 mi WNW 11.5 mph 24.2 mph N/A   Clear
3:53 PM 50.0 °F - 28.9 °F 44% 30.03 in 10.0 mi WNW 9.2 mph - N/A   Clear
4:53 PM 48.9 °F - 28.0 °F 44% 30.05 in 10.0 mi WNW 10.4 mph - N/A   Partly Cloudy
5:53 PM 45.0 °F 41.8 °F 28.9 °F 53% 30.06 in 10.0 mi WNW 5.8 mph - N/A   Clear
6:53 PM 45.0 °F 42.6 °F 28.0 °F 52% 30.08 in 10.0 mi West 4.6 mph - N/A   Mostly Cloudy
7:53 PM 45.0 °F 39.3 °F 28.9 °F 53% 30.10 in 10.0 mi NW 11.5 mph - 0.00 in   Mostly Cloudy
8:53 PM 43.0 °F 38.8 °F 26.1 °F 51% 30.11 in 10.0 mi NW 6.9 mph - N/A   Scattered Clouds
9:53 PM 41.0 °F 36.4 °F 26.1 °F 55% 30.12 in 10.0 mi NW 6.9 mph - N/A   Mostly Cloudy
10:53 PM 37.0 °F 33.3 °F 25.0 °F 62% 30.13 in 10.0 mi WNW 4.6 mph - N/A   Clear
11:53 PM 36.0 °F 30.3 °F 25.0 °F 64% 30.14 in 10.0 mi WNW 6.9 mph - N/A   Partly Cloudy